Location: ??
(35.3352°N, 139.5078°E)
Time: 10:41:43
(UTC+00:00)

Daily predictions for brighter satellites

Satellite Brightness Start Highest point End
(mag) Time Altitude Azimuth Time Altitude Azimuth Time Altitude Azimuth
USA 267 4.0 18:04:19 10° NE 18:09:14 47° E 18:09:14 47° E
ATLAS 3B R/B 3.8 18:09:38 40° SE 18:11:09 44° ESE 18:18:23 10° NE
SJ 16-02 3.4 18:39:41 25° E 18:39:41 25° E 18:42:42 10° SE
CZ-3 R/B 3.3 18:43:42 34° WSW 18:52:10 58° S 18:59:31 10° E
Cosmos 1190 Rocket 4.0 19:04:35 75° NNE 19:04:53 78° ENE 19:10:04 10° SSE
Cosmos 1869 4.1 19:16:20 42° ESE 19:16:20 42° ESE 19:19:09 10° SSE
Cosmos 1954 Rocket 3.9 19:16:13 47° N 19:17:45 83° ENE 19:22:53 10° SSE
Cosmos 2346 Rocket 4.3 19:14:41 10° S 19:20:48 83° W 19:26:55 10° N
Cosmos 2233 Rocket 3.8 19:14:33 10° N 19:20:49 75° W 19:26:59 10° S
Cosmos 1447 Rocket 4.4 19:15:26 10° S 19:21:40 86° W 19:28:01 10° N
Cosmos 1725 Rocket 4.3 19:22:40 45° WSW 19:22:40 45° WSW 19:27:47 10° SSW
Cosmos 2061 Rocket 3.8 19:17:21 10° N 19:23:33 80° W 19:29:45 10° S
SL-16 R/B 4.2 19:18:29 10° SSW 19:20:03 17° SSW 19:20:03 17° SSW
SL-16 R/B 2.2 19:24:45 54° WNW 19:24:48 54° WNW 19:30:22 10° NNE
Chandra Rocket (1) 3.5 19:29:04 31° SW 19:30:52 41° S 19:42:31 10° ESE
Cosmos 1812 3.1 19:32:30 43° E 19:32:30 43° E 19:35:05 10° SSE
SJ-11-01 4.2 19:27:40 10° NNE 19:32:22 89° E 19:37:04 10° SSW
Atlas 2A Centaur Rocket 3.5 19:32:33 24° SSW 19:33:25 25° SSW 19:35:51 10° SE
Cosmos 1378 Rocket 3.5 19:31:23 10° S 19:35:38 77° E 19:39:54 10° N
IRS-1D 3.5 19:31:26 10° NNE 19:36:21 77° ESE 19:41:17 10° S
USA 229 DEB 3.7 19:41:03 36° W 19:42:41 44° NW 19:48:47 10° NNE
USA 229 3.6 19:41:13 36° W 19:42:54 45° NW 19:49:00 10° NNE
Cosmos 1110 Rocket 3.9 19:39:34 10° SSW 19:44:49 74° WNW 19:50:08 10° NNE
USA 267 3.8 19:47:35 10° NNE 19:53:31 38° NW 19:56:36 25° W
Cosmos 2242 Rocket 4.0 19:51:49 10° SW 19:55:51 35° WNW 19:59:55 10° NNW
OAO 1 4.5 19:56:07 28° W 19:59:03 89° S 20:04:32 10° E
SL-8 R/B 4.5 19:56:56 10° SSW 20:01:33 51° SE 20:06:09 10° ENE
ATLAS 3B R/B 3.4 19:57:00 19° WSW 20:01:57 39° NW 20:09:13 10° NNE
CENTAUR R/B 3.6 19:57:26 10° NNW 20:06:10 74° ENE 20:15:40 10° SE
Lacrosse 4 Rocket 4.1 20:07:06 10° NNE 20:08:44 12° NE 20:10:23 10° ENE
COSMO-SKYMED 1 2.7 20:05:41 10° SSE 20:09:45 68° ENE 20:13:51 10° N
SWARM A 4.3 20:09:01 10° SSW 20:12:13 52° W 20:15:29 10° N
Atlas Centaur 2 4.5 20:06:27 10° SSW 20:12:32 26° SSE 20:17:53 10° ESE
Cosmos 1943 3.1 20:07:05 10° SSW 20:12:37 62° WNW 20:18:11 10° NNE
Cosmos 1818 3.5 20:07:13 10° SSW 20:12:37 83° WNW 20:18:05 10° NNE
Aureole 3 Rocket 4.4 20:06:49 10° NNW 20:12:52 60° W 20:21:03 10° S
Meteor 1-11 4.2 20:08:38 10° SSW 20:14:28 71° W 20:20:18 10° N
Cosmos 2297 3.6 20:11:21 10° NNW 20:17:00 80° WSW 20:22:35 10° SSE
Cosmos 371 Rocket 4.1 20:14:22 18° NW 20:17:02 29° W 20:21:09 10° SSW
SJ 16-02 2.5 20:16:18 20° W 20:17:05 21° W 20:20:17 10° SSW
Cosmos 2369 Rocket 2.2 20:11:36 10° NNW 20:17:18 77° WSW 20:22:59 10° SSE
Cosmos 1603 4.1 20:13:13 10° S 20:18:54 69° ESE 20:24:36 10° NNE
Cosmos 1452 Rocket 3.7 20:16:31 10° SW 20:21:30 45° WNW 20:26:30 10° N
NOAA 12 4.4 20:19:54 10° N 20:24:55 44° WNW 20:29:54 10° SW
Hubble Space Telescope 2.9 20:22:54 10° SSW 20:25:38 19° SSE 20:28:22 10° ESE
USA 234 3.8 20:20:04 10° ESE 20:26:26 56° NE 20:32:49 10° NW
Lacrosse 5 rocket 3.1 20:24:50 10° N 20:27:17 19° NE 20:29:43 10° E
Meteor 2-17 Rocket 4.5 20:25:38 10° SSW 20:31:35 59° W 20:37:36 10° N
Cosmos 1850 Rocket 3.9 20:26:42 10° NNW 20:31:51 75° WSW 20:37:00 10° S
Cosmos 1025 Rocket 3.3 20:29:07 10° SSW 20:33:16 44° W 20:37:27 10° N
Helios 1A Rocket 2.8 20:30:08 10° S 20:33:19 41° W 20:36:32 10° NNW
Cosmos 1484 Rocket 2.5 20:33:06 10° N 20:36:35 59° WNW 20:39:59 10° SSW
SKYMED 2 4.2 20:33:52 10° SSW 20:37:50 36° W 20:41:50 10° NNW
Okean 2 Rocket 3.1 20:34:58 10° NNW 20:39:14 56° W 20:43:30 10° S
H-2A R/B 3.8 20:41:06 10° WSW 20:43:51 29° S 20:51:55 10° ESE
Cosmos 332 Rocket 3.8 20:42:04 10° NNW 20:46:46 58° WSW 20:51:24 10° S
Centaur D AC-28 3.9 20:33:28 10° W 20:48:12 38° SSW 20:52:35 10° SE
Tsikada Rocket 4.1 20:48:26 10° S 20:54:45 80° W 21:01:10 10° N
CBERS-1 4.0 20:51:59 10° N 20:57:01 62° WNW 21:02:02 10° SSW
